Date String (YYYY-MM-DD hh:mm:ss) UTC,Instrument flags,Ambient pressure (hPa),Sample flow (lpm),Bypass flow (lpm),Sample temperature (°C),Ambient temperature (°C),ASC tube jacket temperature (°C),LED temperature (°C),Box temperature (°C),Sample RH (%),Span deviation,Mass concentration (μg/m³),Mass concentration (μg/m³),Mass concentration (μg/m³)
DateTimeUTC,F1_M11,P_M11,Q1_M11,Q2_M11,T1_M11,T2_M11,T3_M11,T4_M11,T5_M11,U1_M11,ZSPAN_M11,X0_M11,X2_M11,X1_M11
2023-04-30 10:00:00,,0831.3,5.00,0.00,25.5,23.7,00.0,34.1,27.0,16.1,0000.0,0016.96,0004.89,0002.65
2023-04-30 10:01:00,,0831.3,5.00,0.00,25.5,23.7,00.0,34.0,27.0,16.0,0000.0,0017.59,0004.96,0002.67
2023-04-30 10:02:00,,0831.3,5.00,0.00,25.5,23.7,00.0,34.0,27.0,16.0,0000.0,0018.16,0005.00,0002.66
2023-04-30 10:03:00,,0831.3,4.99,0.00,25.5,23.7,00.0,34.0,27.0,16.0,0000.0,0018.30,0004.97,0002.64
2023-04-30 10:04:00,,0831.3,4.99,0.00,25.5,23.7,00.0,34.0,27.0,16.0,0000.0,0018.16,0004.96,0002.64
2023-04-30 10:05:00,,0831.3,5.01,0.00,25.4,23.7,00.0,34.0,27.0,16.1,0000.0,0019.00,0004.98,0002.65
2023-04-30 10:06:00,,0831.3,5.00,0.00,25.4,23.7,00.0,34.0,27.0,16.1,0000.0,0018.94,0004.98,0002.65
2023-04-30 10:07:00,,0831.3,5.00,0.00,25.4,23.7,00.0,34.0,27.0,16.1,0000.0,0018.56,0004.93,0002.66
2023-04-30 10:08:00,,0831.3,5.01,0.00,25.4,23.7,00.0,33.9,27.0,16.0,0000.0,0017.46,0004.88,0002.68
2023-04-30 10:09:00,,0831.3,5.00,0.00,25.4,23.7,00.0,33.9,27.0,16.0,0000.0,0016.77,0004.86,0002.69
2023-04-30 10:10:00,,0831.3,4.99,0.00,25.4,23.7,00.0,33.9,26.9,16.0,0000.0,0015.63,0004.85,0002.71
2023-04-30 10:11:00,,0831.3,5.01,0.00,25.4,23.7,00.0,33.9,26.9,16.1,0000.0,0015.28,0004.82,0002.74
2023-04-30 10:12:00,,0831.3,5.00,0.00,25.4,23.7,00.0,33.9,26.9,16.1,0000.0,0014.22,0004.79,0002.73
2023-04-30 10:13:00,,0831.3,5.00,0.00,25.4,23.7,00.0,33.9,26.9,16.1,0000.0,0013.58,0004.75,0002.74
2023-04-30 10:14:00,,0831.3,5.00,0.00,25.4,23.7,00.0,33.9,26.9,16.1,0000.0,0013.35,0004.75,0002.74
2023-04-30 10:15:00,,0831.3,4.99,0.00,25.4,23.7,00.0,33.9,26.9,16.1,0000.0,0014.00,0004.81,0002.76
2023-04-30 10:16:00,,0831.3,5.00,0.00,25.4,23.7,00.0,33.9,26.9,16.1,0000.0,0013.20,0004.83,0002.75
2023-04-30 10:17:00,,0831.3,5.00,0.00,25.4,23.7,00.0,33.9,26.9,16.1,0000.0,0013.98,0004.82,0002.74
2023-04-30 10:18:00,,0831.3,5.01,0.00,25.4,23.6,00.0,33.9,26.9,16.1,0000.0,0014.16,0004.78,0002.72
2023-04-30 10:19:00,,0831.4,5.01,0.00,25.4,23.6,00.0,33.9,26.9,16.1,0000.0,0014.27,0004.84,0002.71
2023-04-30 10:20:00,,0831.4,5.00,0.00,25.3,23.6,00.0,33.8,26.9,16.1,0000.0,0014.63,0004.88,0002.70
2023-04-30 10:21:00,,0831.3,4.99,0.00,25.3,23.6,00.0,33.8,26.9,16.1,0000.0,0015.24,0004.96,0002.70
2023-04-30 10:22:00,,0831.3,5.00,0.00,25.3,23.5,00.0,33.8,26.8,16.2,0000.0,0015.95,0004.98,0002.67
2023-04-30 10:23:00,,0831.3,5.01,0.00,25.3,23.5,00.0,33.8,26.8,16.2,0000.0,0017.34,0004.89,0002.67
2023-04-30 10:24:00,,0831.3,5.01,0.00,25.3,23.5,00.0,33.8,26.8,16.2,0000.0,0018.87,0004.90,0002.66
2023-04-30 10:25:00,,0831.3,4.98,0.00,25.3,23.5,00.0,33.8,26.8,16.2,0000.0,0019.12,0004.93,0002.64
2023-04-30 10:26:00,,0831.4,5.00,0.00,25.3,23.5,00.0,33.8,26.8,16.2,0000.0,0018.39,0004.88,0002.63
2023-04-30 10:27:00,,0831.4,5.01,0.00,25.2,23.4,00.0,33.7,26.7,16.2,0000.0,0018.28,0004.88,0002.65
2023-04-30 10:28:00,,0831.3,5.00,0.00,25.2,23.4,00.0,33.7,26.7,16.3,0000.0,0018.45,0004.91,0002.67
2023-04-30 10:29:00,,0831.4,5.00,0.00,25.2,23.3,00.0,33.7,26.7,16.2,0000.0,0018.91,0004.95,0002.69
2023-04-30 10:30:00,,0831.3,5.01,0.00,25.2,23.3,00.0,33.7,26.7,16.3,0000.0,0020.24,0004.94,0002.69
2023-04-30 10:31:00,,0831.3,5.00,0.00,25.1,23.3,00.0,33.7,26.6,16.3,0000.0,0021.95,0004.87,0002.68
2023-04-30 10:32:00,,0831.3,5.00,0.00,25.1,23.3,00.0,33.7,26.6,16.4,0000.0,0022.65,0004.79,0002.68
2023-04-30 10:33:00,,0831.3,4.99,0.00,25.1,23.3,00.0,33.7,26.6,16.4,0000.0,0022.14,0004.81,0002.68
2023-04-30 10:34:00,,0831.4,5.00,0.00,25.1,23.3,00.0,33.6,26.6,16.4,0000.0,0020.79,0004.87,0002.67
2023-04-30 10:35:00,,0831.4,4.99,0.00,25.1,23.3,00.0,33.6,26.6,16.4,0000.0,0019.51,0004.83,0002.68
2023-04-30 10:36:00,,0831.3,5.00,0.00,25.1,23.3,00.0,33.6,26.6,16.4,0000.0,0019.17,0004.80,0002.68
2023-04-30 10:37:00,,0831.4,5.00,0.00,25.1,23.3,00.0,33.6,26.6,16.4,0000.0,0020.63,0004.80,0002.69
2023-04-30 10:38:00,,0831.3,5.01,0.00,25.0,23.3,00.0,33.6,26.6,16.5,0000.0,0022.09,0004.76,0002.66
2023-04-30 10:39:00,,0831.4,5.00,0.00,25.0,23.2,00.0,33.6,26.5,16.5,0000.0,0022.10,0004.79,0002.67
2023-04-30 10:40:00,,0831.4,5.00,0.00,25.0,23.2,00.0,33.5,26.5,16.7,0000.0,0021.69,0004.81,0002.69
2023-04-30 10:41:00,,0831.4,4.99,0.00,25.0,23.1,00.0,33.5,26.5,16.8,0000.0,0020.70,0004.80,0002.69
2023-04-30 10:42:00,,0831.4,5.00,0.00,25.0,23.1,00.0,33.5,26.5,16.7,0000.0,0018.54,0004.79,0002.70
2023-04-30 10:43:00,,0831.4,5.00,0.00,24.9,23.1,00.0,33.5,26.5,16.6,0000.0,0017.35,0004.83,0002.67
2023-04-30 10:44:00,,0831.4,5.00,0.00,24.9,23.1,00.0,33.5,26.5,16.6,0000.0,0016.78,0004.83,0002.69
2023-04-30 10:45:00,,0831.4,5.01,0.00,24.9,23.1,00.0,33.4,26.4,16.8,0000.0,0016.89,0004.76,0002.66
2023-04-30 10:46:00,,0831.4,4.98,0.00,24.9,23.1,00.0,33.4,26.4,16.9,0000.0,0017.33,0004.79,0002.64
2023-04-30 10:47:00,,0831.4,5.00,0.00,24.9,23.1,00.0,33.4,26.4,16.9,0000.0,0017.58,0004.83,0002.63
2023-04-30 10:48:00,,0831.4,5.01,0.00,24.9,23.1,00.0,33.4,26.4,16.9,0000.0,0016.44,0004.83,0002.61
2023-04-30 10:49:00,,0831.4,5.00,0.00,24.8,23.1,00.0,33.4,26.4,16.7,0000.0,0015.14,0004.84,0002.61
2023-04-30 10:50:00,,0831.4,5.01,0.00,24.8,23.1,00.0,33.4,26.3,16.7,0000.0,0014.63,0004.83,0002.61
2023-04-30 10:51:00,,0831.4,5.00,0.00,24.8,23.1,00.0,33.4,26.3,16.6,0000.0,0014.35,0004.79,0002.58
2023-04-30 10:52:00,,0831.3,5.00,0.00,24.8,23.1,00.0,33.3,26.3,16.5,0000.0,0014.30,0004.83,0002.58
2023-04-30 10:53:00,,0831.3,5.00,0.00,24.8,23.0,00.0,33.3,26.3,16.5,0000.0,0014.36,0004.89,0002.61
2023-04-30 10:54:00,,0831.4,5.00,0.00,24.8,23.0,00.0,33.3,26.3,16.4,0000.0,0013.91,0004.88,0002.62
2023-04-30 10:55:00,,0831.3,5.00,0.00,24.8,23.0,00.0,33.3,26.3,16.4,0000.0,0013.81,0004.88,0002.60
2023-04-30 10:56:00,,0831.3,5.00,0.00,24.7,23.1,00.0,33.3,26.3,16.4,0000.0,0013.57,0004.93,0002.62
2023-04-30 10:57:00,,0831.3,5.00,0.00,24.7,23.1,00.0,33.2,26.2,16.4,0000.0,0013.39,0004.95,0002.66
2023-04-30 10:58:00,,0831.3,5.00,0.00,24.7,23.1,00.0,33.2,26.2,16.4,0000.0,0013.62,0004.92,0002.67
2023-04-30 10:59:00,,0831.3,5.00,0.00,24.7,23.0,00.0,33.2,26.2,16.5,0000.0,0014.29,0004.93,0002.68
